Location: Hackbridge
(51.3833°N, 0.1500°W)
Time: 11:43:28
(UTC+00:00)

STARLINK-69 - Pass Details

Date: 13 October 2019
Orbit: 548 x 551 km, 53.0° (Epoch: 11 November)

Event Time Altitude Azimuth Distance (km) Brightness Sun altitude
Rises 19:26:19 0° 245° (WSW) 2,711 7.9 -21.5°
Reaches altitude 10° 19:28:33 10° 244° (WSW) 1,820 6.9 -21.9°
Enters shadow 19:32:33 75° 181° (S) 572 3.5 -22.5°
